owner,sensor,date,latitude,longitude,vertical_datum,wind_speed,wind_to_direction,wind_speed_of_gust,qcFlag 
TCOON,ioos:station:TCOON:068:1,2009-06-01T00:00:00Z,27.2970,-97.4049,0.0,7.4,107.0,9.1,'11111222,11111222,11111222' 
TCOON,ioos:station:TCOON:068:1,2009-06-01T01:00:00Z,27.2970,-97.4049,0.0,6.4,109.0,7.8,'11111222,11111222,11111222' 
TCOON,ioos:station:TCOON:068:1,2009-06-01T02:00:00Z,27.2970,-97.4049,0.0,5.5,105.0,6.8,'11111222,11111222,11111222' 
TCOON,ioos:station:TCOON:068:1,2009-06-01T03:00:00Z,27.2970,-97.4049,0.0,6.1,110.0,7.2,'11111222,11111222,11111222' 
TCOON,ioos:station:TCOON:068:1,2009-06-01T04:00:00Z,27.2970,-97.4049,0.0,6.6,126.0,99.0,'11111222,11111222,11144222' 
TCOON,ioos:station:TCOON:068:1,2009-06-01T05:00:00Z,27.2970,-97.4049,0.0,4.7,146.0,5.9,'11111222,11111222,11111222' 
TCOON,ioos:station:TCOON:068:1,2009-06-01T06:00:00Z,27.2970,-97.4049,0.0,5.4,130.0,6.9,'11111222,11111222,11111222' 
TCOON,ioos:station:TCOON:068:1,2009-06-01T07:00:00Z,27.2970,-97.4049,0.0,6.4,126.0,7.5,'11111222,11111222,11111222' 
TCOON,ioos:station:TCOON:068:1,2009-06-01T08:00:00Z,27.2970,-97.4049,0.0,5.3,131.0,6.5,'11111222,11111222,11111222' 
TCOON,ioos:station:TCOON:068:1,2009-06-01T09:00:00Z,27.2970,-97.4049,0.0,6.3,124.0,7.6,'11111222,11111222,11111222' 
TCOON,ioos:station:TCOON:068:1,2009-06-01T10:00:00Z,27.2970,-97.4049,0.0,7.6,121.0,9.0,'11111222,11111222,11111222' 
TCOON,ioos:station:TCOON:068:1,2009-06-01T11:00:00Z,27.2970,-97.4049,0.0,7.2,125.0,8.2,'11111222,11111222,11111222' 
TCOON,ioos:station:TCOON:068:1,2009-06-01T12:00:00Z,27.2970,-97.4049,0.0,6.2,111.0,7.9,'11111222,11111222,11111222' 
TCOON,ioos:station:TCOON:068:1,2009-06-01T13:00:00Z,27.2970,-97.4049,0.0,5.4,122.0,6.9,'11111222,11111222,11111222' 
TCOON,ioos:station:TCOON:068:1,2009-06-01T14:00:00Z,27.2970,-97.4049,0.0,6.7,125.0,8.0,'11111222,11111222,11111222' 
TCOON,ioos:station:TCOON:068:1,2009-06-01T15:00:00Z,27.2970,-97.4049,0.0,5.0,126.0,6.4,'11111222,11111222,11111222' 
TCOON,ioos:station:TCOON:068:1,2009-06-01T16:00:00Z,27.2970,-97.4049,0.0,4.9,111.0,6.3,'11111222,11111222,11111222' 
TCOON,ioos:station:TCOON:068:1,2009-06-01T17:00:00Z,27.2970,-97.4049,0.0,5.6,105.0,7.2,'11111222,11111222,11111222' 
TCOON,ioos:station:TCOON:068:1,2009-06-01T18:00:00Z,27.2970,-97.4049,0.0,5.2,100.0,6.1,'11111222,11111222,11111222' 
TCOON,ioos:station:TCOON:068:1,2009-06-01T19:00:00Z,27.2970,-97.4049,0.0,7.0,91.0,8.3,'11111222,11111222,11111222' 
TCOON,ioos:station:TCOON:068:1,2009-06-01T20:00:00Z,27.2970,-97.4049,0.0,8.2,77.0,9.7,'11111222,11111222,11111222' 
TCOON,ioos:station:TCOON:068:1,2009-06-01T21:00:00Z,27.2970,-97.4049,0.0,8.9,102.0,10.4,'11111222,11111222,11111222' 
TCOON,ioos:station:TCOON:068:1,2009-06-01T22:00:00Z,27.2970,-97.4049,0.0,7.1,117.0,9.4,'11111222,11111222,11111222' 
TCOON,ioos:station:TCOON:068:1,2009-06-01T23:00:00Z,27.2970,-97.4049,0.0,8.0,122.0,99.0,'11111222,11111222,11144222' 
TCOON,ioos:station:TCOON:068:1,2009-06-02T00:00:00Z,27.2970,-97.4049,0.0,6.6,116.0,8.2,'11111222,11111222,11111222' 
TCOON,ioos:station:TCOON:068:1,2009-06-02T01:00:00Z,27.2970,-97.4049,0.0,6.5,120.0,8.1,'11111222,11111222,11111222' 
TCOON,ioos:station:TCOON:068:1,2009-06-02T02:00:00Z,27.2970,-97.4049,0.0,7.9,115.0,9.7,'11111222,11111222,11111222' 
TCOON,ioos:station:TCOON:068:1,2009-06-02T03:00:00Z,27.2970,-97.4049,0.0,8.1,113.0,10.2,'11111222,11111222,11111222' 
TCOON,ioos:station:TCOON:068:1,2009-06-02T04:00:00Z,27.2970,-97.4049,0.0,6.6,114.0,9.2,'11111222,11111222,11111222' 
TCOON,ioos:station:TCOON:068:1,2009-06-02T05:00:00Z,27.2970,-97.4049,0.0,7.9,117.0,10.0,'11111222,11111222,11111222' 
TCOON,ioos:station:TCOON:068:1,2009-06-02T06:00:00Z,27.2970,-97.4049,0.0,7.5,120.0,9.2,'11111222,11111222,11111222' 
TCOON,ioos:station:TCOON:068:1,2009-06-02T07:00:00Z,27.2970,-97.4049,0.0,5.0,116.0,6.7,'11111222,11111222,11111222' 
TCOON,ioos:station:TCOON:068:1,2009-06-02T08:00:00Z,27.2970,-97.4049,0.0,4.9,118.0,6.4,'11111222,11111222,11111222' 
TCOON,ioos:station:TCOON:068:1,2009-06-02T09:00:00Z,27.2970,-97.4049,0.0,6.3,123.0,7.3,'11111222,11111222,11111222' 
TCOON,ioos:station:TCOON:068:1,2009-06-02T10:00:00Z,27.2970,-97.4049,0.0,6.6,126.0,8.0,'11111222,11111222,11111222' 
TCOON,ioos:station:TCOON:068:1,2009-06-02T11:00:00Z,27.2970,-97.4049,0.0,7.1,125.0,8.4,'11111222,11111222,11111222' 
TCOON,ioos:station:TCOON:068:1,2009-06-02T12:00:00Z,27.2970,-97.4049,0.0,5.4,118.0,7.1,'11111222,11111222,11111222' 
TCOON,ioos:station:TCOON:068:1,2009-06-02T13:00:00Z,27.2970,-97.4049,0.0,5.5,120.0,7.6,'11111222,11111222,11111222' 
TCOON,ioos:station:TCOON:068:1,2009-06-02T14:00:00Z,27.2970,-97.4049,0.0,7.7,121.0,9.5,'11111222,11111222,11111222' 
TCOON,ioos:station:TCOON:068:1,2009-06-02T15:00:00Z,27.2970,-97.4049,0.0,7.8,133.0,9.5,'11111222,11111222,11111222' 
TCOON,ioos:station:TCOON:068:1,2009-06-02T16:00:00Z,27.2970,-97.4049,0.0,7.0,140.0,8.7,'11111222,11111222,11111222' 
TCOON,ioos:station:TCOON:068:1,2009-06-02T19:00:00Z,27.2970,-97.4049,0.0,7.5,126.0,9.4,'11111222,11111222,11111222' 
TCOON,ioos:station:TCOON:068:1,2009-06-02T20:00:00Z,27.2970,-97.4049,0.0,8.5,127.0,13.3,'11111222,11111222,11111222' 
TCOON,ioos:station:TCOON:068:1,2009-06-02T21:00:00Z,27.2970,-97.4049,0.0,8.2,122.0,10.3,'11111222,11111222,11111222' 
TCOON,ioos:station:TCOON:068:1,2009-06-02T22:00:00Z,27.2970,-97.4049,0.0,8.2,118.0,11.0,'11111222,11111222,11111222' 
TCOON,ioos:station:TCOON:068:1,2009-06-02T23:00:00Z,27.2970,-97.4049,0.0,8.2,117.0,10.1,'11111222,11111222,11111222' 
TCOON,ioos:station:TCOON:068:1,2009-06-03T00:00:00Z,27.2970,-97.4049,0.0,8.6,117.0,10.8,'11111222,11111222,11111222' 
TCOON,ioos:station:TCOON:068:1,2009-06-03T01:00:00Z,27.2970,-97.4049,0.0,6.0,108.0,7.2,'11111222,11111222,11111222' 
TCOON,ioos:station:TCOON:068:1,2009-06-03T02:00:00Z,27.2970,-97.4049,0.0,6.5,107.0,8.7,'11111222,11111222,11111222' 
TCOON,ioos:station:TCOON:068:1,2009-06-03T03:00:00Z,27.2970,-97.4049,0.0,6.5,105.0,7.8,'11111222,11111222,11111222' 
TCOON,ioos:station:TCOON:068:1,2009-06-03T04:00:00Z,27.2970,-97.4049,0.0,7.9,113.0,9.3,'11111222,11111222,11111222' 
TCOON,ioos:station:TCOON:068:1,2009-06-03T05:00:00Z,27.2970,-97.4049,0.0,6.8,128.0,8.4,'11111222,11111222,11111222' 
TCOON,ioos:station:TCOON:068:1,2009-06-03T06:00:00Z,27.2970,-97.4049,0.0,4.8,141.0,5.9,'11111222,11111222,11111222' 
TCOON,ioos:station:TCOON:068:1,2009-06-03T07:00:00Z,27.2970,-97.4049,0.0,6.6,144.0,8.2,'11111222,11111222,11111222' 
TCOON,ioos:station:TCOON:068:1,2009-06-03T08:00:00Z,27.2970,-97.4049,0.0,4.5,152.0,5.2,'11111222,11111222,11111222' 
TCOON,ioos:station:TCOON:068:1,2009-06-03T09:00:00Z,27.2970,-97.4049,0.0,5.1,152.0,6.0,'11111222,11111222,11111222' 
TCOON,ioos:station:TCOON:068:1,2009-06-03T10:00:00Z,27.2970,-97.4049,0.0,4.0,155.0,4.6,'11111222,11111222,11111222' 
TCOON,ioos:station:TCOON:068:1,2009-06-03T11:00:00Z,27.2970,-97.4049,0.0,3.8,218.0,4.3,'11111222,11111222,11111222' 
TCOON,ioos:station:TCOON:068:1,2009-06-03T12:00:00Z,27.2970,-97.4049,0.0,2.1,232.0,2.2,'11111222,11111222,11111222' 
TCOON,ioos:station:TCOON:068:1,2009-06-03T13:00:00Z,27.2970,-97.4049,0.0,6.0,329.0,6.9,'11111222,11111222,11111222' 
TCOON,ioos:station:TCOON:068:1,2009-06-03T14:00:00Z,27.2970,-97.4049,0.0,2.9,266.0,3.4,'11111222,11111222,11111222' 
TCOON,ioos:station:TCOON:068:1,2009-06-03T15:00:00Z,27.2970,-97.4049,0.0,1.5,255.0,1.8,'11111222,11111222,11111222' 
TCOON,ioos:station:TCOON:068:1,2009-06-03T16:00:00Z,27.2970,-97.4049,0.0,0.1,198.0,0.5,'11111222,11111222,11111222' 
TCOON,ioos:station:TCOON:068:1,2009-06-03T17:00:00Z,27.2970,-97.4049,0.0,2.1,144.0,2.7,'11111222,11111222,11111222' 
TCOON,ioos:station:TCOON:068:1,2009-06-03T18:00:00Z,27.2970,-97.4049,0.0,2.2,117.0,3.5,'11111222,11111222,11111222' 
TCOON,ioos:station:TCOON:068:1,2009-06-03T19:00:00Z,27.2970,-97.4049,0.0,4.8,115.0,6.4,'11111222,11111222,11111222' 
TCOON,ioos:station:TCOON:068:1,2009-06-03T20:00:00Z,27.2970,-97.4049,0.0,6.9,117.0,8.6,'11111222,11111222,11111222' 
TCOON,ioos:station:TCOON:068:1,2009-06-03T21:00:00Z,27.2970,-97.4049,0.0,6.3,116.0,8.1,'11111222,11111222,11111222' 
TCOON,ioos:station:TCOON:068:1,2009-06-03T22:00:00Z,27.2970,-97.4049,0.0,6.3,116.0,7.8,'11111222,11111222,11111222' 
TCOON,ioos:station:TCOON:068:1,2009-06-03T23:00:00Z,27.2970,-97.4049,0.0,7.1,128.0,8.6,'11111222,11111222,11111222' 
TCOON,ioos:station:TCOON:068:1,2009-06-04T00:00:00Z,27.2970,-97.4049,0.0,6.8,131.0,8.2,'11111222,11111222,11111222' 
TCOON,ioos:station:TCOON:068:1,2009-06-04T01:00:00Z,27.2970,-97.4049,0.0,6.4,204.0,7.3,'11111222,11111222,11111222' 
TCOON,ioos:station:TCOON:068:1,2009-06-04T02:00:00Z,27.2970,-97.4049,0.0,5.6,148.0,13.3,'11111222,11111222,11111222' 
TCOON,ioos:station:TCOON:068:1,2009-06-04T03:00:00Z,27.2970,-97.4049,0.0,3.8,76.0,4.2,'11111222,11111222,11111222' 
TCOON,ioos:station:TCOON:068:1,2009-06-04T04:00:00Z,27.2970,-97.4049,0.0,4.8,186.0,5.7,'11111222,11111222,11111222' 
TCOON,ioos:station:TCOON:068:1,2009-06-04T05:00:00Z,27.2970,-97.4049,0.0,5.8,214.0,6.4,'11111222,11111222,11111222' 
TCOON,ioos:station:TCOON:068:1,2009-06-04T06:00:00Z,27.2970,-97.4049,0.0,1.2,207.0,1.4,'11111222,11111222,11111222' 
TCOON,ioos:station:TCOON:068:1,2009-06-04T07:00:00Z,27.2970,-97.4049,0.0,1.2,11.0,1.4,'11111222,11111222,11111222' 
TCOON,ioos:station:TCOON:068:1,2009-06-04T08:00:00Z,27.2970,-97.4049,0.0,0.4,14.0,0.7,'11111222,11111222,11111222' 
TCOON,ioos:station:TCOON:068:1,2009-06-04T09:00:00Z,27.2970,-97.4049,0.0,3.0,222.0,3.3,'11111222,11111222,11111222' 
TCOON,ioos:station:TCOON:068:1,2009-06-04T10:00:00Z,27.2970,-97.4049,0.0,4.5,220.0,5.1,'11111222,11111222,11111222' 
TCOON,ioos:station:TCOON:068:1,2009-06-04T11:00:00Z,27.2970,-97.4049,0.0,5.5,262.0,6.4,'11111222,11111222,11111222' 
TCOON,ioos:station:TCOON:068:1,2009-06-04T12:00:00Z,27.2970,-97.4049,0.0,4.7,326.0,5.3,'11111222,11111222,11111222' 
TCOON,ioos:station:TCOON:068:1,2009-06-04T13:00:00Z,27.2970,-97.4049,0.0,4.1,356.0,4.7,'11111222,11111222,11111222' 
TCOON,ioos:station:TCOON:068:1,2009-06-04T14:00:00Z,27.2970,-97.4049,0.0,3.2,333.0,3.8,'11111222,11111222,11111222' 
TCOON,ioos:station:TCOON:068:1,2009-06-04T15:00:00Z,27.2970,-97.4049,0.0,5.4,18.0,7.0,'11111222,11111222,11111222' 
TCOON,ioos:station:TCOON:068:1,2009-06-04T16:00:00Z,27.2970,-97.4049,0.0,6.4,7.0,7.2,'11111222,11111222,11111222' 
TCOON,ioos:station:TCOON:068:1,2009-06-04T17:00:00Z,27.2970,-97.4049,0.0,6.3,54.0,8.0,'11111222,11111222,11111222' 
TCOON,ioos:station:TCOON:068:1,2009-06-04T18:00:00Z,27.2970,-97.4049,0.0,6.5,51.0,7.3,'11111222,11111222,11111222' 
TCOON,ioos:station:TCOON:068:1,2009-06-04T19:00:00Z,27.2970,-97.4049,0.0,6.4,56.0,7.6,'11111222,11111222,11111222' 
TCOON,ioos:station:TCOON:068:1,2009-06-04T20:00:00Z,27.2970,-97.4049,0.0,6.4,71.0,7.7,'11111222,11111222,11111222' 
TCOON,ioos:station:TCOON:068:1,2009-06-04T21:00:00Z,27.2970,-97.4049,0.0,5.6,93.0,6.6,'11111222,11111222,11111222' 
TCOON,ioos:station:TCOON:068:1,2009-06-04T22:00:00Z,27.2970,-97.4049,0.0,4.6,103.0,5.5,'11111222,11111222,11111222' 
TCOON,ioos:station:TCOON:068:1,2009-06-04T23:00:00Z,27.2970,-97.4049,0.0,5.2,106.0,6.2,'11111222,11111222,11111222' 
TCOON,ioos:station:TCOON:068:1,2009-06-05T00:00:00Z,27.2970,-97.4049,0.0,4.7,122.0,5.7,'11111222,11111222,11111222' 
TCOON,ioos:station:TCOON:068:1,2009-06-05T01:00:00Z,27.2970,-97.4049,0.0,3.7,120.0,4.6,'11111222,11111222,11111222' 
TCOON,ioos:station:TCOON:068:1,2009-06-05T02:00:00Z,27.2970,-97.4049,0.0,3.0,123.0,3.5,'11111222,11111222,11111222' 
TCOON,ioos:station:TCOON:068:1,2009-06-05T03:00:00Z,27.2970,-97.4049,0.0,2.6,128.0,3.3,'11111222,11111222,11111222' 
TCOON,ioos:station:TCOON:068:1,2009-06-05T04:00:00Z,27.2970,-97.4049,0.0,3.2,127.0,4.2,'11111222,11111222,11111222' 
TCOON,ioos:station:TCOON:068:1,2009-06-05T05:00:00Z,27.2970,-97.4049,0.0,2.1,151.0,2.6,'11111222,11111222,11111222' 
TCOON,ioos:station:TCOON:068:1,2009-06-05T06:00:00Z,27.2970,-97.4049,0.0,1.7,146.0,2.1,'11111222,11111222,11111222' 
TCOON,ioos:station:TCOON:068:1,2009-06-05T07:00:00Z,27.2970,-97.4049,0.0,1.5,154.0,1.8,'11111222,11111222,11111222' 
TCOON,ioos:station:TCOON:068:1,2009-06-05T08:00:00Z,27.2970,-97.4049,0.0,0.6,169.0,0.7,'11111222,11111222,11111222' 
TCOON,ioos:station:TCOON:068:1,2009-06-05T09:00:00Z,27.2970,-97.4049,0.0,2.1,314.0,2.4,'11111222,11111222,11111222' 
TCOON,ioos:station:TCOON:068:1,2009-06-05T10:00:00Z,27.2970,-97.4049,0.0,2.4,292.0,2.7,'11111222,11111222,11111222' 
TCOON,ioos:station:TCOON:068:1,2009-06-05T11:00:00Z,27.2970,-97.4049,0.0,3.4,315.0,3.9,'11111222,11111222,11111222' 
TCOON,ioos:station:TCOON:068:1,2009-06-05T12:00:00Z,27.2970,-97.4049,0.0,4.1,323.0,4.6,'11111222,11111222,11111222' 
TCOON,ioos:station:TCOON:068:1,2009-06-05T13:00:00Z,27.2970,-97.4049,0.0,2.8,321.0,3.2,'11111222,11111222,11111222' 
TCOON,ioos:station:TCOON:068:1,2009-06-05T14:00:00Z,27.2970,-97.4049,0.0,1.3,317.0,1.7,'11111222,11111222,11111222' 
TCOON,ioos:station:TCOON:068:1,2009-06-05T15:00:00Z,27.2970,-97.4049,0.0,1.8,225.0,2.2,'11111222,11111222,11111222' 
TCOON,ioos:station:TCOON:068:1,2009-06-05T16:00:00Z,27.2970,-97.4049,0.0,1.2,210.0,1.6,'11111222,11111222,11111222' 
TCOON,ioos:station:TCOON:068:1,2009-06-05T17:00:00Z,27.2970,-97.4049,0.0,0.4,167.0,0.7,'11111222,11111222,11111222' 
TCOON,ioos:station:TCOON:068:1,2009-06-05T18:00:00Z,27.2970,-97.4049,0.0,5.0,73.0,7.4,'11111222,11111222,11111222' 
TCOON,ioos:station:TCOON:068:1,2009-06-05T19:00:00Z,27.2970,-97.4049,0.0,6.2,65.0,7.4,'11111222,11111222,11111222' 
TCOON,ioos:station:TCOON:068:1,2009-06-05T20:00:00Z,27.2970,-97.4049,0.0,6.4,70.0,7.3,'11111222,11111222,11111222' 
TCOON,ioos:station:TCOON:068:1,2009-06-05T21:00:00Z,27.2970,-97.4049,0.0,8.2,65.0,14.3,'11111222,11111222,11111222' 
TCOON,ioos:station:TCOON:068:1,2009-06-05T22:00:00Z,27.2970,-97.4049,0.0,8.0,77.0,9.2,'11111222,11111222,11111222' 
TCOON,ioos:station:TCOON:068:1,2009-06-05T23:00:00Z,27.2970,-97.4049,0.0,7.5,94.0,8.7,'11111222,11111222,11111222' 
TCOON,ioos:station:TCOON:068:1,2009-06-06T00:00:00Z,27.2970,-97.4049,0.0,7.5,88.0,8.5,'11111222,11111222,11111222' 
TCOON,ioos:station:TCOON:068:1,2009-06-06T01:00:00Z,27.2970,-97.4049,0.0,6.2,98.0,7.3,'11111222,11111222,11111222' 
TCOON,ioos:station:TCOON:068:1,2009-06-06T02:00:00Z,27.2970,-97.4049,0.0,5.6,120.0,7.3,'11111222,11111222,11111222' 
TCOON,ioos:station:TCOON:068:1,2009-06-06T03:00:00Z,27.2970,-97.4049,0.0,5.3,129.0,6.7,'11111222,11111222,11111222' 
TCOON,ioos:station:TCOON:068:1,2009-06-06T04:00:00Z,27.2970,-97.4049,0.0,5.1,136.0,6.2,'11111222,11111222,11111222' 
TCOON,ioos:station:TCOON:068:1,2009-06-06T05:00:00Z,27.2970,-97.4049,0.0,5.2,143.0,6.2,'11111222,11111222,11111222' 
TCOON,ioos:station:TCOON:068:1,2009-06-06T06:00:00Z,27.2970,-97.4049,0.0,5.1,138.0,6.0,'11111222,11111222,11111222' 
TCOON,ioos:station:TCOON:068:1,2009-06-06T07:00:00Z,27.2970,-97.4049,0.0,5.6,144.0,6.6,'11111222,11111222,11111222' 
TCOON,ioos:station:TCOON:068:1,2009-06-06T08:00:00Z,27.2970,-97.4049,0.0,4.6,146.0,5.6,'11111222,11111222,11111222' 
TCOON,ioos:station:TCOON:068:1,2009-06-06T09:00:00Z,27.2970,-97.4049,0.0,4.3,154.0,4.8,'11111222,11111222,11111222' 
TCOON,ioos:station:TCOON:068:1,2009-06-06T10:00:00Z,27.2970,-97.4049,0.0,4.5,155.0,5.4,'11111222,11111222,11111222' 
TCOON,ioos:station:TCOON:068:1,2009-06-06T11:00:00Z,27.2970,-97.4049,0.0,3.8,156.0,4.1,'11111222,11111222,11111222' 
TCOON,ioos:station:TCOON:068:1,2009-06-06T12:00:00Z,27.2970,-97.4049,0.0,3.3,155.0,4.2,'11111222,11111222,11111222' 
TCOON,ioos:station:TCOON:068:1,2009-06-06T13:00:00Z,27.2970,-97.4049,0.0,5.3,124.0,5.9,'11111222,11111222,11111222' 
TCOON,ioos:station:TCOON:068:1,2009-06-06T14:00:00Z,27.2970,-97.4049,0.0,5.5,113.0,6.6,'11111222,11111222,11111222' 
TCOON,ioos:station:TCOON:068:1,2009-06-06T15:00:00Z,27.2970,-97.4049,0.0,4.8,131.0,5.7,'11111222,11111222,11111222' 
TCOON,ioos:station:TCOON:068:1,2009-06-06T16:00:00Z,27.2970,-97.4049,0.0,4.5,120.0,5.9,'11111222,11111222,11111222' 
TCOON,ioos:station:TCOON:068:1,2009-06-06T17:00:00Z,27.2970,-97.4049,0.0,5.2,137.0,7.1,'11111222,11111222,11111222' 
TCOON,ioos:station:TCOON:068:1,2009-06-06T18:00:00Z,27.2970,-97.4049,0.0,5.9,106.0,7.2,'11111222,11111222,11111222' 
TCOON,ioos:station:TCOON:068:1,2009-06-06T19:00:00Z,27.2970,-97.4049,0.0,6.8,121.0,8.4,'11111222,11111222,11111222' 
TCOON,ioos:station:TCOON:068:1,2009-06-06T20:00:00Z,27.2970,-97.4049,0.0,6.1,114.0,7.6,'11111222,11111222,11111222' 
TCOON,ioos:station:TCOON:068:1,2009-06-06T21:00:00Z,27.2970,-97.4049,0.0,6.4,114.0,9.3,'11111222,11111222,11111222' 
TCOON,ioos:station:TCOON:068:1,2009-06-06T22:00:00Z,27.2970,-97.4049,0.0,4.5,113.0,6.3,'11111222,11111222,11111222' 
TCOON,ioos:station:TCOON:068:1,2009-06-06T23:00:00Z,27.2970,-97.4049,0.0,6.5,106.0,9.1,'11111222,11111222,11111222' 
TCOON,ioos:station:TCOON:068:1,2009-06-07T00:00:00Z,27.2970,-97.4049,0.0,6.2,109.0,8.9,'11111222,11111222,11111222' 
TCOON,ioos:station:TCOON:068:1,2009-06-07T01:00:00Z,27.2970,-97.4049,0.0,7.5,104.0,8.9,'11111222,11111222,11111222' 
TCOON,ioos:station:TCOON:068:1,2009-06-07T02:00:00Z,27.2970,-97.4049,0.0,5.7,121.0,7.7,'11111222,11111222,11111222' 
TCOON,ioos:station:TCOON:068:1,2009-06-07T03:00:00Z,27.2970,-97.4049,0.0,6.1,127.0,7.5,'11111222,11111222,11111222' 
TCOON,ioos:station:TCOON:068:1,2009-06-07T04:00:00Z,27.2970,-97.4049,0.0,6.6,132.0,8.0,'11111222,11111222,11111222' 
TCOON,ioos:station:TCOON:068:1,2009-06-07T05:00:00Z,27.2970,-97.4049,0.0,5.8,133.0,7.5,'11111222,11111222,11111222' 
TCOON,ioos:station:TCOON:068:1,2009-06-07T06:00:00Z,27.2970,-97.4049,0.0,6.2,138.0,7.9,'11111222,11111222,11111222' 
TCOON,ioos:station:TCOON:068:1,2009-06-07T08:00:00Z,27.2970,-97.4049,0.0,6.2,141.0,8.2,'11111222,11111222,11111222' 
TCOON,ioos:station:TCOON:068:1,2009-06-07T09:00:00Z,27.2970,-97.4049,0.0,7.4,136.0,9.4,'11111222,11111222,11111222' 
TCOON,ioos:station:TCOON:068:1,2009-06-07T10:00:00Z,27.2970,-97.4049,0.0,6.9,140.0,8.6,'11111222,11111222,11111222' 
TCOON,ioos:station:TCOON:068:1,2009-06-07T11:00:00Z,27.2970,-97.4049,0.0,6.4,144.0,8.4,'11111222,11111222,11111222' 
TCOON,ioos:station:TCOON:068:1,2009-06-07T12:00:00Z,27.2970,-97.4049,0.0,6.8,149.0,7.9,'11111222,11111222,11111222' 
TCOON,ioos:station:TCOON:068:1,2009-06-07T13:00:00Z,27.2970,-97.4049,0.0,7.4,154.0,11.1,'11111222,11111222,11111222' 
TCOON,ioos:station:TCOON:068:1,2009-06-07T14:00:00Z,27.2970,-97.4049,0.0,7.3,150.0,8.6,'11111222,11111222,11111222' 
TCOON,ioos:station:TCOON:068:1,2009-06-07T16:00:00Z,27.2970,-97.4049,0.0,8.4,148.0,10.6,'11111222,11111222,11111222' 
TCOON,ioos:station:TCOON:068:1,2009-06-07T17:00:00Z,27.2970,-97.4049,0.0,7.0,133.0,99.0,'11111222,11111222,11144222' 
TCOON,ioos:station:TCOON:068:1,2009-06-07T18:00:00Z,27.2970,-97.4049,0.0,7.3,128.0,14.8,'11111222,11111222,11111222' 
TCOON,ioos:station:TCOON:068:1,2009-06-07T19:00:00Z,27.2970,-97.4049,0.0,7.8,116.0,9.7,'11111222,11111222,11111222' 
TCOON,ioos:station:TCOON:068:1,2009-06-07T20:00:00Z,27.2970,-97.4049,0.0,9.4,118.0,12.0,'11111222,11111222,11111222' 
TCOON,ioos:station:TCOON:068:1,2009-06-07T21:00:00Z,27.2970,-97.4049,0.0,8.8,123.0,11.1,'11111222,11111222,11111222' 
TCOON,ioos:station:TCOON:068:1,2009-06-07T22:00:00Z,27.2970,-97.4049,0.0,9.0,124.0,12.1,'11111222,11111222,11111222' 
TCOON,ioos:station:TCOON:068:1,2009-06-07T23:00:00Z,27.2970,-97.4049,0.0,10.9,123.0,12.7,'11111222,11111222,11111222' 
TCOON,ioos:station:TCOON:068:1,2009-06-08T00:00:00Z,27.2970,-97.4049,0.0,9.8,123.0,11.7,'11111222,11111222,11111222' 
TCOON,ioos:station:TCOON:068:1,2009-06-08T01:00:00Z,27.2970,-97.4049,0.0,8.1,124.0,10.4,'11111222,11111222,11111222' 
TCOON,ioos:station:TCOON:068:1,2009-06-08T02:00:00Z,27.2970,-97.4049,0.0,8.9,121.0,10.9,'11111222,11111222,11111222' 
TCOON,ioos:station:TCOON:068:1,2009-06-08T03:00:00Z,27.2970,-97.4049,0.0,6.7,130.0,9.0,'11111222,11111222,11111222' 
TCOON,ioos:station:TCOON:068:1,2009-06-08T04:00:00Z,27.2970,-97.4049,0.0,7.4,131.0,9.7,'11111222,11111222,11111222' 
TCOON,ioos:station:TCOON:068:1,2009-06-08T05:00:00Z,27.2970,-97.4049,0.0,7.9,142.0,9.8,'11111222,11111222,11111222' 
TCOON,ioos:station:TCOON:068:1,2009-06-08T06:00:00Z,27.2970,-97.4049,0.0,7.3,139.0,9.7,'11111222,11111222,11111222' 
TCOON,ioos:station:TCOON:068:1,2009-06-08T07:00:00Z,27.2970,-97.4049,0.0,6.8,136.0,8.7,'11111222,11111222,11111222' 
TCOON,ioos:station:TCOON:068:1,2009-06-08T08:00:00Z,27.2970,-97.4049,0.0,6.2,134.0,11.1,'11111222,11111222,11111222' 
TCOON,ioos:station:TCOON:068:1,2009-06-08T09:00:00Z,27.2970,-97.4049,0.0,7.7,143.0,9.6,'11111222,11111222,11111222' 
TCOON,ioos:station:TCOON:068:1,2009-06-08T10:00:00Z,27.2970,-97.4049,0.0,7.5,139.0,9.2,'11111222,11111222,11111222' 
TCOON,ioos:station:TCOON:068:1,2009-06-08T11:00:00Z,27.2970,-97.4049,0.0,6.9,139.0,8.6,'11111222,11111222,11111222' 
TCOON,ioos:station:TCOON:068:1,2009-06-08T12:00:00Z,27.2970,-97.4049,0.0,8.4,142.0,10.0,'11111222,11111222,11111222' 
TCOON,ioos:station:TCOON:068:1,2009-06-08T13:00:00Z,27.2970,-97.4049,0.0,7.5,142.0,9.1,'11111222,11111222,11111222' 
TCOON,ioos:station:TCOON:068:1,2009-06-08T14:00:00Z,27.2970,-97.4049,0.0,7.6,142.0,9.1,'11111222,11111222,11111222' 
TCOON,ioos:station:TCOON:068:1,2009-06-08T15:00:00Z,27.2970,-97.4049,0.0,8.3,150.0,10.3,'11111222,11111222,11111222' 
TCOON,ioos:station:TCOON:068:1,2009-06-08T16:00:00Z,27.2970,-97.4049,0.0,6.7,140.0,9.3,'11111222,11111222,11111222' 
TCOON,ioos:station:TCOON:068:1,2009-06-08T17:00:00Z,27.2970,-97.4049,0.0,8.9,134.0,11.3,'11111222,11111222,11111222' 
TCOON,ioos:station:TCOON:068:1,2009-06-08T18:00:00Z,27.2970,-97.4049,0.0,7.8,121.0,10.3,'11111222,11111222,11111222' 
TCOON,ioos:station:TCOON:068:1,2009-06-08T19:00:00Z,27.2970,-97.4049,0.0,8.0,126.0,10.6,'11111222,11111222,11111222' 
TCOON,ioos:station:TCOON:068:1,2009-06-08T20:00:00Z,27.2970,-97.4049,0.0,7.4,115.0,9.4,'11111222,11111222,11111222' 
TCOON,ioos:station:TCOON:068:1,2009-06-08T21:00:00Z,27.2970,-97.4049,0.0,8.7,124.0,10.6,'11111222,11111222,11111222' 
TCOON,ioos:station:TCOON:068:1,2009-06-08T22:00:00Z,27.2970,-97.4049,0.0,8.9,115.0,10.8,'11111222,11111222,11111222' 
TCOON,ioos:station:TCOON:068:1,2009-06-08T23:00:00Z,27.2970,-97.4049,0.0,8.9,115.0,12.2,'11111222,11111222,11111222' 
TCOON,ioos:station:TCOON:068:1,2009-06-09T00:00:00Z,27.2970,-97.4049,0.0,8.1,119.0,10.2,'11111222,11111222,11111222' 
TCOON,ioos:station:TCOON:068:1,2009-06-09T01:00:00Z,27.2970,-97.4049,0.0,7.2,124.0,12.5,'11111222,11111222,11111222' 
TCOON,ioos:station:TCOON:068:1,2009-06-09T02:00:00Z,27.2970,-97.4049,0.0,6.5,120.0,8.4,'11111222,11111222,11111222' 
TCOON,ioos:station:TCOON:068:1,2009-06-09T03:00:00Z,27.2970,-97.4049,0.0,6.4,118.0,8.1,'11111222,11111222,11111222' 
TCOON,ioos:station:TCOON:068:1,2009-06-09T04:00:00Z,27.2970,-97.4049,0.0,8.0,114.0,9.6,'11111222,11111222,11111222' 
TCOON,ioos:station:TCOON:068:1,2009-06-09T05:00:00Z,27.2970,-97.4049,0.0,7.0,118.0,9.5,'11111222,11111222,11111222' 
TCOON,ioos:station:TCOON:068:1,2009-06-09T06:00:00Z,27.2970,-97.4049,0.0,7.1,123.0,99.0,'11111222,11111222,11144222' 
TCOON,ioos:station:TCOON:068:1,2009-06-09T07:00:00Z,27.2970,-97.4049,0.0,6.2,127.0,7.9,'11111222,11111222,11111222' 
TCOON,ioos:station:TCOON:068:1,2009-06-09T08:00:00Z,27.2970,-97.4049,0.0,5.4,130.0,6.9,'11111222,11111222,11111222' 
TCOON,ioos:station:TCOON:068:1,2009-06-09T09:00:00Z,27.2970,-97.4049,0.0,5.7,135.0,7.6,'11111222,11111222,11111222' 
TCOON,ioos:station:TCOON:068:1,2009-06-09T10:00:00Z,27.2970,-97.4049,0.0,6.2,140.0,7.4,'11111222,11111222,11111222' 
TCOON,ioos:station:TCOON:068:1,2009-06-09T11:00:00Z,27.2970,-97.4049,0.0,5.8,140.0,7.2,'11111222,11111222,11111222' 
TCOON,ioos:station:TCOON:068:1,2009-06-09T12:00:00Z,27.2970,-97.4049,0.0,4.9,150.0,6.5,'11111222,11111222,11111222' 
TCOON,ioos:station:TCOON:068:1,2009-06-09T13:00:00Z,27.2970,-97.4049,0.0,5.2,148.0,6.1,'11111222,11111222,11111222' 
TCOON,ioos:station:TCOON:068:1,2009-06-09T14:00:00Z,27.2970,-97.4049,0.0,6.8,147.0,16.7,'11111222,11111222,11111222' 
TCOON,ioos:station:TCOON:068:1,2009-06-09T15:00:00Z,27.2970,-97.4049,0.0,7.5,137.0,9.9,'11111222,11111222,11111222' 